Time,TemperatureF,DewpointF,PressureIn,WindDirection,WindDirectionDegrees,WindSpeedMPH,WindSpeedGustMPH,Humidity,HourlyPrecipIn,Conditions,Clouds,dailyrainin,SoftwareType,DateUTC
2013-06-08 00:01:00,74.9,72.7,29.77,NNW,342,0.0,0.0,93,0.00,,,0.00,WUHU216DAVISVP2,2013-06-08 04:01:00,
2013-06-08 00:07:00,75.4,73.2,29.77,NNW,342,0.0,0.0,93,0.00,,,0.00,WUHU216DAVISVP2,2013-06-08 04:07:00,
2013-06-08 00:12:00,74.7,72.5,29.77,NNW,342,0.0,0.0,93,0.00,,,0.00,WUHU216DAVISVP2,2013-06-08 04:12:00,
2013-06-08 00:17:00,75.4,73.2,29.76,NNW,340,0.0,0.0,93,0.00,,,0.00,WUHU216DAVISVP2,2013-06-08 04:17:00,
2013-06-08 00:22:00,74.9,72.7,29.76,NNW,342,0.0,0.0,93,0.01,,,0.01,WUHU216DAVISVP2,2013-06-08 04:22:00,
2013-06-08 00:27:00,75.4,73.2,29.76,NNW,342,0.0,0.0,93,0.01,,,0.01,WUHU216DAVISVP2,2013-06-08 04:27:00,
2013-06-08 00:32:00,74.9,72.7,29.77,NNW,340,0.0,0.0,93,0.01,,,0.01,WUHU216DAVISVP2,2013-06-08 04:32:00,
2013-06-08 00:37:00,74.7,72.5,29.77,NNW,342,0.0,0.0,93,0.01,,,0.01,WUHU216DAVISVP2,2013-06-08 04:37:00,
2013-06-08 00:42:00,74.9,72.7,29.77,NNW,342,0.0,0.0,93,0.01,,,0.01,WUHU216DAVISVP2,2013-06-08 04:42:00,
2013-06-08 00:47:00,74.9,72.7,29.78,NNW,340,0.0,0.0,93,0.01,,,0.01,WUHU216DAVISVP2,2013-06-08 04:47:00,
2013-06-08 00:52:00,75.3,73.1,29.78,NNW,340,0.0,0.0,93,0.01,,,0.01,WUHU216DAVISVP2,2013-06-08 04:52:00,
2013-06-08 00:57:00,74.7,72.5,29.78,NNW,340,0.0,0.0,93,0.01,,,0.01,WUHU216DAVISVP2,2013-06-08 04:57:00,
2013-06-08 01:02:00,74.7,72.5,29.78,NNW,339,0.0,0.0,93,0.01,,,0.01,WUHU216DAVISVP2,2013-06-08 05:02:00,
2013-06-08 01:07:00,75.3,73.1,29.78,NNW,340,0.0,0.0,93,0.01,,,0.01,WUHU216DAVISVP2,2013-06-08 05:07:00,
2013-06-08 01:12:00,74.7,72.5,29.78,NNW,340,0.0,0.0,93,0.01,,,0.01,WUHU216DAVISVP2,2013-06-08 05:12:00,
2013-06-08 01:17:00,74.6,72.4,29.77,NNW,339,0.0,0.0,93,0.01,,,0.01,WUHU216DAVISVP2,2013-06-08 05:17:00,
2013-06-08 01:22:00,74.6,72.4,29.77,NNW,340,0.0,0.0,93,0.00,,,0.01,WUHU216DAVISVP2,2013-06-08 05:22:00,
2013-06-08 01:27:00,74.6,72.4,29.77,NNW,340,0.0,0.0,93,0.00,,,0.01,WUHU216DAVISVP2,2013-06-08 05:27:00,
2013-06-08 01:32:00,74.6,72.4,29.77,NNW,340,0.0,0.0,93,0.00,,,0.01,WUHU216DAVISVP2,2013-06-08 05:32:00,
2013-06-08 01:37:00,74.2,72.0,29.77,NNW,339,0.0,0.0,93,0.00,,,0.01,WUHU216DAVISVP2,2013-06-08 05:37:00,
2013-06-08 01:42:00,74.2,72.0,29.77,NNW,342,0.0,0.0,93,0.00,,,0.01,WUHU216DAVISVP2,2013-06-08 05:42:00,
2013-06-08 01:47:00,74.2,72.0,29.78,NNW,339,0.0,0.0,93,0.00,,,0.01,WUHU216DAVISVP2,2013-06-08 05:47:00,
2013-06-08 01:52:00,74.2,72.0,29.78,NNW,339,0.0,0.0,93,0.00,,,0.01,WUHU216DAVISVP2,2013-06-08 05:52:00,
2013-06-08 01:57:00,74.2,72.0,29.78,NNW,342,0.0,0.0,93,0.00,,,0.01,WUHU216DAVISVP2,2013-06-08 05:57:00,
2013-06-08 02:02:00,74.9,72.7,29.78,NNW,339,0.0,0.0,93,0.00,,,0.01,WUHU216DAVISVP2,2013-06-08 06:02:00,
2013-06-08 02:07:00,74.9,72.7,29.78,NNW,339,0.0,0.0,93,0.00,,,0.01,WUHU216DAVISVP2,2013-06-08 06:07:00,
2013-06-08 02:12:00,74.2,72.0,29.78,North,0,0.0,0.0,93,0.00,,,0.01,WUHU216DAVISVP2,2013-06-08 06:12:00,
2013-06-08 02:17:00,75.1,72.9,29.79,North,0,0.0,0.0,93,0.00,,,0.01,WUHU216DAVISVP2,2013-06-08 06:17:00,
2013-06-08 02:22:00,75.1,72.9,29.79,North,0,0.0,0.0,93,0.00,,,0.01,WUHU216DAVISVP2,2013-06-08 06:22:00,
2013-06-08 02:27:00,74.4,72.2,29.79,North,0,0.0,0.0,93,0.00,,,0.01,WUHU216DAVISVP2,2013-06-08 06:27:00,
2013-06-08 02:32:00,74.4,72.2,29.79,North,0,0.0,0.0,93,0.00,,,0.01,WUHU216DAVISVP2,2013-06-08 06:32:00,
2013-06-08 02:37:00,75.1,72.9,29.79,North,0,0.0,0.0,93,0.00,,,0.01,WUHU216DAVISVP2,2013-06-08 06:37:00,
2013-06-08 02:42:00,75.6,73.4,29.79,North,1,0.0,0.0,93,0.00,,,0.01,WUHU216DAVISVP2,2013-06-08 06:42:00,
2013-06-08 02:47:00,75.1,72.9,29.80,North,1,0.0,0.0,93,0.00,,,0.01,WUHU216DAVISVP2,2013-06-08 06:47:00,
2013-06-08 02:53:00,74.9,72.7,29.80,North,1,0.0,0.0,93,0.00,,,0.01,WUHU216DAVISVP2,2013-06-08 06:53:00,
2013-06-08 02:58:00,75.1,72.9,29.80,North,1,0.0,0.0,93,0.00,,,0.01,WUHU216DAVISVP2,2013-06-08 06:58:00,
2013-06-08 03:03:00,74.9,72.7,29.80,North,1,0.0,0.0,93,0.00,,,0.01,WUHU216DAVISVP2,2013-06-08 07:03:00,
2013-06-08 03:08:00,74.9,72.7,29.80,North,1,0.0,0.0,93,0.00,,,0.01,WUHU216DAVISVP2,2013-06-08 07:08:00,
2013-06-08 03:13:00,74.7,72.5,29.80,ESE,123,0.0,0.0,93,0.00,,,0.01,WUHU216DAVISVP2,2013-06-08 07:13:00,
2013-06-08 03:18:00,74.6,72.4,29.80,ESE,123,0.0,0.0,93,0.00,,,0.01,WUHU216DAVISVP2,2013-06-08 07:18:00,
2013-06-08 03:23:00,74.7,72.5,29.80,ESE,123,0.0,0.0,93,0.01,,,0.02,WUHU216DAVISVP2,2013-06-08 07:23:00,
2013-06-08 03:28:00,74.7,72.5,29.80,ESE,123,0.0,0.0,93,0.02,,,0.03,WUHU216DAVISVP2,2013-06-08 07:28:00,
2013-06-08 03:33:00,74.6,72.4,29.79,ESE,123,0.0,0.0,93,0.02,,,0.03,WUHU216DAVISVP2,2013-06-08 07:33:00,
2013-06-08 03:38:00,74.6,72.4,29.79,ESE,123,0.0,0.0,93,0.02,,,0.03,WUHU216DAVISVP2,2013-06-08 07:38:00,
2013-06-08 03:43:00,74.6,72.4,29.79,ESE,123,0.0,0.0,93,0.02,,,0.03,WUHU216DAVISVP2,2013-06-08 07:43:00,
2013-06-08 03:48:00,74.4,72.2,29.79,ESE,123,0.0,0.0,93,0.02,,,0.03,WUHU216DAVISVP2,2013-06-08 07:48:00,
2013-06-08 03:53:00,74.4,72.2,29.79,ESE,123,0.0,0.0,93,0.02,,,0.03,WUHU216DAVISVP2,2013-06-08 07:53:00,
2013-06-08 03:58:00,74.6,72.4,29.79,ESE,123,0.0,0.0,93,0.02,,,0.03,WUHU216DAVISVP2,2013-06-08 07:58:00,
2013-06-08 04:03:00,74.2,72.0,29.80,ESE,123,0.0,0.0,93,0.02,,,0.03,WUHU216DAVISVP2,2013-06-08 08:03:00,
2013-06-08 04:08:00,74.2,72.0,29.80,ESE,123,0.0,0.0,93,0.02,,,0.03,WUHU216DAVISVP2,2013-06-08 08:08:00,
2013-06-08 04:13:00,74.2,72.0,29.80,ESE,123,0.0,0.0,93,0.02,,,0.03,WUHU216DAVISVP2,2013-06-08 08:13:00,
2013-06-08 04:18:00,74.2,72.0,29.80,ESE,123,0.0,0.0,93,0.02,,,0.03,WUHU216DAVISVP2,2013-06-08 08:18:00,
2013-06-08 04:23:00,74.2,72.0,29.80,ESE,123,0.0,0.0,93,0.01,,,0.03,WUHU216DAVISVP2,2013-06-08 08:23:00,
2013-06-08 04:28:00,74.0,71.8,29.80,ESE,123,0.0,0.0,93,0.00,,,0.03,WUHU216DAVISVP2,2013-06-08 08:28:00,
2013-06-08 04:33:00,74.0,71.8,29.79,ESE,123,0.0,0.0,93,0.00,,,0.03,WUHU216DAVISVP2,2013-06-08 08:33:00,
2013-06-08 04:38:00,73.9,71.7,29.79,ESE,123,0.0,0.0,93,0.00,,,0.03,WUHU216DAVISVP2,2013-06-08 08:38:00,
2013-06-08 04:43:00,73.9,71.7,29.79,ESE,123,0.0,0.0,93,0.00,,,0.03,WUHU216DAVISVP2,2013-06-08 08:43:00,
2013-06-08 04:48:00,73.9,71.7,29.80,ESE,123,0.0,0.0,93,0.00,,,0.03,WUHU216DAVISVP2,2013-06-08 08:48:00,
2013-06-08 04:53:00,73.9,71.7,29.80,ESE,123,0.0,0.0,93,0.00,,,0.03,WUHU216DAVISVP2,2013-06-08 08:53:00,
2013-06-08 04:58:00,73.9,71.7,29.80,ESE,123,0.0,0.0,93,0.00,,,0.03,WUHU216DAVISVP2,2013-06-08 08:58:00,
2013-06-08 05:03:00,73.9,71.7,29.81,ESE,123,0.0,0.0,93,0.00,,,0.03,WUHU216DAVISVP2,2013-06-08 09:03:00,
2013-06-08 05:08:00,73.9,71.7,29.81,ESE,123,0.0,0.0,93,0.00,,,0.03,WUHU216DAVISVP2,2013-06-08 09:08:00,
2013-06-08 05:13:00,73.7,71.5,29.81,ESE,123,0.0,0.0,93,0.00,,,0.03,WUHU216DAVISVP2,2013-06-08 09:13:00,
2013-06-08 05:18:00,73.7,71.5,29.81,ESE,123,0.0,0.0,93,0.00,,,0.03,WUHU216DAVISVP2,2013-06-08 09:18:00,
2013-06-08 05:23:00,73.7,71.5,29.81,ESE,123,0.0,0.0,93,0.00,,,0.03,WUHU216DAVISVP2,2013-06-08 09:23:00,
2013-06-08 05:28:00,73.7,71.5,29.81,ESE,123,0.0,0.0,93,0.00,,,0.03,WUHU216DAVISVP2,2013-06-08 09:28:00,
2013-06-08 05:33:00,73.7,71.5,29.82,ESE,123,0.0,0.0,93,0.00,,,0.03,WUHU216DAVISVP2,2013-06-08 09:33:00,
2013-06-08 05:38:00,73.7,71.5,29.82,ESE,123,0.0,0.0,93,0.00,,,0.03,WUHU216DAVISVP2,2013-06-08 09:38:00,
2013-06-08 05:43:00,73.7,71.5,29.82,ESE,123,0.0,0.0,93,0.00,,,0.03,WUHU216DAVISVP2,2013-06-08 09:43:00,
2013-06-08 05:48:00,73.7,71.5,29.82,ESE,123,0.0,0.0,93,0.00,,,0.03,WUHU216DAVISVP2,2013-06-08 09:48:00,
2013-06-08 05:53:00,73.7,71.5,29.82,ESE,123,0.0,0.0,93,0.00,,,0.03,WUHU216DAVISVP2,2013-06-08 09:53:00,
2013-06-08 05:58:00,73.7,71.5,29.82,ESE,123,0.0,0.0,93,0.00,,,0.03,WUHU216DAVISVP2,2013-06-08 09:58:00,
2013-06-08 06:03:00,73.7,71.5,29.83,ESE,123,0.0,0.0,93,0.00,,,0.03,WUHU216DAVISVP2,2013-06-08 10:03:00,
2013-06-08 06:08:00,73.5,71.4,29.83,ESE,123,0.0,0.0,93,0.00,,,0.03,WUHU216DAVISVP2,2013-06-08 10:08:00,
2013-06-08 06:13:00,74.2,72.0,29.83,ESE,123,0.0,0.0,93,0.00,,,0.03,WUHU216DAVISVP2,2013-06-08 10:13:00,
2013-06-08 06:18:00,73.7,71.5,29.83,ESE,123,0.0,0.0,93,0.00,,,0.03,WUHU216DAVISVP2,2013-06-08 10:18:00,
2013-06-08 06:23:00,73.5,71.3,29.83,ESE,123,0.0,0.0,93,0.00,,,0.03,WUHU216DAVISVP2,2013-06-08 10:23:00,
2013-06-08 06:29:00,73.7,71.5,29.84,ESE,123,0.0,0.0,93,0.00,,,0.03,WUHU216DAVISVP2,2013-06-08 10:29:00,
2013-06-08 06:34:00,73.7,71.5,29.84,ESE,123,0.0,0.0,93,0.00,,,0.03,WUHU216DAVISVP2,2013-06-08 10:34:00,
2013-06-08 06:39:00,73.9,71.7,29.84,ESE,123,0.0,0.0,93,0.00,,,0.03,WUHU216DAVISVP2,2013-06-08 10:39:00,
2013-06-08 06:44:00,73.9,71.7,29.84,ESE,123,0.0,0.0,93,0.00,,,0.03,WUHU216DAVISVP2,2013-06-08 10:44:00,
2013-06-08 06:49:00,73.9,71.7,29.84,ESE,123,0.0,0.0,93,0.00,,,0.03,WUHU216DAVISVP2,2013-06-08 10:49:00,
2013-06-08 06:54:00,74.0,71.8,29.84,ESE,123,0.0,0.0,93,0.00,,,0.03,WUHU216DAVISVP2,2013-06-08 10:54:00,
2013-06-08 06:59:00,74.0,71.8,29.85,ESE,123,0.0,0.0,93,0.00,,,0.03,WUHU216DAVISVP2,2013-06-08 10:59:00,
2013-06-08 07:04:00,74.2,72.0,29.85,ESE,123,0.0,0.0,93,0.00,,,0.03,WUHU216DAVISVP2,2013-06-08 11:04:00,
2013-06-08 07:09:00,74.4,72.2,29.85,ESE,123,0.0,0.0,93,0.00,,,0.03,WUHU216DAVISVP2,2013-06-08 11:09:00,
2013-06-08 07:14:00,74.6,72.4,29.85,ESE,123,0.0,0.0,93,0.00,,,0.03,WUHU216DAVISVP2,2013-06-08 11:14:00,
2013-06-08 07:19:00,74.6,72.4,29.85,ESE,123,0.0,0.0,93,0.00,,,0.03,WUHU216DAVISVP2,2013-06-08 11:19:00,
2013-06-08 07:24:00,74.9,72.7,29.85,ESE,123,0.0,0.0,93,0.00,,,0.03,WUHU216DAVISVP2,2013-06-08 11:24:00,
2013-06-08 07:29:00,74.7,72.5,29.85,ESE,123,0.0,0.0,93,0.00,,,0.03,WUHU216DAVISVP2,2013-06-08 11:29:00,
2013-06-08 07:34:00,74.9,72.7,29.85,ESE,123,0.0,0.0,93,0.00,,,0.03,WUHU216DAVISVP2,2013-06-08 11:34:00,
2013-06-08 07:39:00,74.9,72.7,29.85,ESE,123,0.0,0.0,93,0.00,,,0.03,WUHU216DAVISVP2,2013-06-08 11:39:00,
2013-06-08 07:44:00,75.1,72.9,29.85,ESE,123,0.0,0.0,93,0.00,,,0.03,WUHU216DAVISVP2,2013-06-08 11:44:00,
2013-06-08 07:49:00,75.1,72.9,29.85,ESE,123,0.0,0.0,93,0.00,,,0.03,WUHU216DAVISVP2,2013-06-08 11:49:00,
2013-06-08 07:54:00,75.3,73.1,29.85,ESE,123,0.0,0.0,93,0.00,,,0.03,WUHU216DAVISVP2,2013-06-08 11:54:00,
2013-06-08 07:59:00,75.4,73.2,29.85,ESE,123,0.0,0.0,93,0.00,,,0.03,WUHU216DAVISVP2,2013-06-08 11:59:00,
2013-06-08 08:04:00,75.4,73.2,29.85,ESE,123,0.0,0.0,93,0.00,,,0.03,WUHU216DAVISVP2,2013-06-08 12:04:00,
2013-06-08 08:09:00,75.1,72.9,29.85,North,350,0.0,0.0,93,0.00,,,0.03,WUHU216DAVISVP2,2013-06-08 12:09:00,
2013-06-08 08:17:00,75.8,73.6,29.86,North,354,0.0,0.0,93,0.00,,,0.03,WUHU216DAVISVP2,2013-06-08 12:17:00,
2013-06-08 08:22:00,76.0,73.8,29.86,North,354,0.0,0.0,93,0.00,,,0.03,WUHU216DAVISVP2,2013-06-08 12:22:00,
2013-06-08 08:28:00,75.4,73.2,29.86,North,354,0.0,0.0,93,0.00,,,0.03,WUHU216DAVISVP2,2013-06-08 12:28:00,
2013-06-08 08:33:00,75.3,73.1,29.87,North,356,0.0,0.0,93,0.00,,,0.03,WUHU216DAVISVP2,2013-06-08 12:33:00,
2013-06-08 08:38:00,75.3,73.1,29.87,North,356,0.0,0.0,93,0.00,,,0.03,WUHU216DAVISVP2,2013-06-08 12:38:00,
2013-06-08 08:43:00,75.4,73.2,29.87,North,356,0.0,0.0,93,0.00,,,0.03,WUHU216DAVISVP2,2013-06-08 12:43:00,
2013-06-08 08:48:00,75.4,73.2,29.87,North,356,0.0,0.0,93,0.00,,,0.03,WUHU216DAVISVP2,2013-06-08 12:48:00,
2013-06-08 08:53:00,75.4,73.2,29.87,North,356,0.0,0.0,93,0.00,,,0.03,WUHU216DAVISVP2,2013-06-08 12:53:00,
2013-06-08 08:58:00,75.4,73.2,29.87,North,356,0.0,0.0,93,0.00,,,0.03,WUHU216DAVISVP2,2013-06-08 12:58:00,
2013-06-08 09:03:00,75.4,73.2,29.88,North,356,0.0,0.0,93,0.00,,,0.03,WUHU216DAVISVP2,2013-06-08 13:03:00,
2013-06-08 09:08:00,75.4,73.2,29.88,North,356,0.0,0.0,93,0.00,,,0.03,WUHU216DAVISVP2,2013-06-08 13:08:00,
2013-06-08 09:13:00,75.4,73.2,29.88,North,356,0.0,0.0,93,0.00,,,0.03,WUHU216DAVISVP2,2013-06-08 13:13:00,
2013-06-08 09:18:00,75.4,73.2,29.89,North,356,0.0,0.0,93,0.00,,,0.03,WUHU216DAVISVP2,2013-06-08 13:18:00,
2013-06-08 09:23:00,75.6,73.4,29.89,North,356,0.0,0.0,93,0.00,,,0.03,WUHU216DAVISVP2,2013-06-08 13:23:00,
2013-06-08 09:28:00,75.6,73.4,29.89,NE,38,0.0,0.0,93,0.00,,,0.03,WUHU216DAVISVP2,2013-06-08 13:28:00,
2013-06-08 09:33:00,75.6,73.4,29.89,NE,38,0.0,0.0,93,0.00,,,0.03,WUHU216DAVISVP2,2013-06-08 13:33:00,
2013-06-08 09:38:00,75.6,73.4,29.89,NE,38,0.0,0.0,93,0.00,,,0.03,WUHU216DAVISVP2,2013-06-08 13:38:00,
2013-06-08 09:43:00,75.6,73.4,29.89,NE,55,0.0,0.0,93,0.00,,,0.03,WUHU216DAVISVP2,2013-06-08 13:43:00,
2013-06-08 09:48:00,75.6,73.4,29.90,NE,55,0.0,0.0,93,0.00,,,0.03,WUHU216DAVISVP2,2013-06-08 13:48:00,
2013-06-08 09:53:00,75.8,73.6,29.90,NE,55,0.0,0.0,93,0.00,,,0.03,WUHU216DAVISVP2,2013-06-08 13:53:00,
2013-06-08 09:58:00,75.4,73.2,29.90,North,357,7.0,9.0,93,0.00,,,0.03,WUHU216DAVISVP2,2013-06-08 13:58:00,
2013-06-08 10:03:00,72.7,70.2,29.92,North,353,1.0,16.0,92,0.00,,,0.03,WUHU216DAVISVP2,2013-06-08 14:03:00,
2013-06-08 10:08:00,71.3,68.9,29.92,West,270,1.0,16.0,92,0.00,,,0.03,WUHU216DAVISVP2,2013-06-08 14:08:00,
2013-06-08 10:13:00,70.1,68.0,29.92,WNW,295,4.0,7.0,93,0.00,,,0.03,WUHU216DAVISVP2,2013-06-08 14:13:00,
2013-06-08 10:18:00,69.6,67.5,29.93,NNW,343,0.0,10.0,93,0.00,,,0.03,WUHU216DAVISVP2,2013-06-08 14:18:00,
2013-06-08 10:23:00,69.4,67.3,29.93,North,0,0.0,10.0,93,0.00,,,0.03,WUHU216DAVISVP2,2013-06-08 14:23:00,
2013-06-08 10:28:00,69.3,67.2,29.93,WNW,296,0.0,6.0,93,0.00,,,0.03,WUHU216DAVISVP2,2013-06-08 14:28:00,
2013-06-08 10:33:00,69.3,67.2,29.93,WNW,302,0.0,4.0,93,0.00,,,0.03,WUHU216DAVISVP2,2013-06-08 14:33:00,
2013-06-08 10:38:00,69.4,67.3,29.93,SW,226,0.0,8.0,93,0.00,,,0.03,WUHU216DAVISVP2,2013-06-08 14:38:00,
2013-06-08 10:43:00,69.6,67.5,29.93,North,353,0.0,8.0,93,0.00,,,0.03,WUHU216DAVISVP2,2013-06-08 14:43:00,
2013-06-08 10:48:00,69.3,67.2,29.93,NNW,332,0.0,6.0,93,0.00,,,0.03,WUHU216DAVISVP2,2013-06-08 14:48:00,
2013-06-08 10:53:00,70.1,68.0,29.93,West,277,0.0,6.0,93,0.00,,,0.03,WUHU216DAVISVP2,2013-06-08 14:53:00,
2013-06-08 10:58:00,70.1,67.6,29.93,NNW,342,0.0,1.0,92,0.00,,,0.03,WUHU216DAVISVP2,2013-06-08 14:58:00,
2013-06-08 11:03:00,70.1,67.6,29.92,West,281,0.0,2.0,92,0.00,,,0.03,WUHU216DAVISVP2,2013-06-08 15:03:00,
2013-06-08 11:08:00,70.3,67.5,29.92,NW,326,0.0,2.0,91,0.00,,,0.03,WUHU216DAVISVP2,2013-06-08 15:08:00,
2013-06-08 11:13:00,70.6,67.8,29.93,NW,326,0.0,0.0,91,0.00,,,0.03,WUHU216DAVISVP2,2013-06-08 15:13:00,
2013-06-08 11:18:00,70.9,68.1,29.93,NW,326,0.0,0.0,91,0.00,,,0.03,WUHU216DAVISVP2,2013-06-08 15:18:00,
2013-06-08 11:23:00,71.1,68.0,29.93,NW,326,0.0,0.0,90,0.00,,,0.03,WUHU216DAVISVP2,2013-06-08 15:23:00,
2013-06-08 11:28:00,71.5,68.4,29.93,NW,326,0.0,0.0,90,0.00,,,0.03,WUHU216DAVISVP2,2013-06-08 15:28:00,
2013-06-08 11:33:00,71.6,68.5,29.93,NW,325,0.0,0.0,90,0.00,,,0.03,WUHU216DAVISVP2,2013-06-08 15:33:00,
2013-06-08 11:38:00,71.8,68.4,29.93,NW,325,0.0,0.0,89,0.00,,,0.03,WUHU216DAVISVP2,2013-06-08 15:38:00,
2013-06-08 11:43:00,71.6,67.9,29.93,NW,325,0.0,0.0,88,0.00,,,0.03,WUHU216DAVISVP2,2013-06-08 15:43:00,
2013-06-08 11:48:00,71.6,67.9,29.93,NW,325,0.0,0.0,88,0.00,,,0.03,WUHU216DAVISVP2,2013-06-08 15:48:00,
2013-06-08 11:53:00,72.3,68.5,29.93,NW,325,0.0,0.0,88,0.00,,,0.03,WUHU216DAVISVP2,2013-06-08 15:53:00,
2013-06-08 11:58:00,73.0,69.2,29.93,NW,325,0.0,0.0,88,0.00,,,0.03,WUHU216DAVISVP2,2013-06-08 15:58:00,
2013-06-08 12:03:00,73.5,69.4,29.93,NNW,347,0.0,0.0,87,0.00,,,0.03,WUHU216DAVISVP2,2013-06-08 16:03:00,
2013-06-08 12:08:00,73.9,69.8,29.93,South,175,0.0,0.0,87,0.00,,,0.03,WUHU216DAVISVP2,2013-06-08 16:08:00,
2013-06-08 12:13:00,74.4,70.0,29.93,ENE,68,0.0,0.0,86,0.00,,,0.03,WUHU216DAVISVP2,2013-06-08 16:13:00,
2013-06-08 12:18:00,74.6,70.1,29.93,North,352,0.0,0.0,86,0.00,,,0.03,WUHU216DAVISVP2,2013-06-08 16:18:00,
2013-06-08 12:23:00,75.3,70.8,29.93,WNW,302,0.0,0.0,86,0.00,,,0.03,WUHU216DAVISVP2,2013-06-08 16:23:00,
2013-06-08 12:28:00,75.4,70.6,29.93,NNW,346,0.0,0.0,85,0.00,,,0.03,WUHU216DAVISVP2,2013-06-08 16:28:00,
2013-06-08 12:33:00,75.8,71.0,29.93,North,357,0.0,0.0,85,0.00,,,0.03,WUHU216DAVISVP2,2013-06-08 16:33:00,
2013-06-08 12:38:00,75.8,71.0,29.93,North,0,0.0,0.0,85,0.00,,,0.03,WUHU216DAVISVP2,2013-06-08 16:38:00,
2013-06-08 12:43:00,76.3,70.8,29.93,NNE,31,0.0,0.0,83,0.00,,,0.03,WUHU216DAVISVP2,2013-06-08 16:43:00,
2013-06-08 12:48:00,76.8,71.7,29.93,NW,315,0.0,0.0,84,0.00,,,0.03,WUHU216DAVISVP2,2013-06-08 16:48:00,
2013-06-08 12:53:00,77.0,71.5,29.93,WNW,285,0.0,8.0,83,0.00,,,0.03,WUHU216DAVISVP2,2013-06-08 16:53:00,
2013-06-08 12:58:00,77.0,71.5,29.93,NW,319,4.0,8.0,83,0.00,,,0.03,WUHU216DAVISVP2,2013-06-08 16:58:00,
2013-06-08 13:03:00,77.2,71.6,29.93,NNW,330,0.0,6.0,83,0.00,,,0.03,WUHU216DAVISVP2,2013-06-08 17:03:00,
2013-06-08 13:09:00,77.4,71.9,29.93,NNW,332,0.0,6.0,83,0.00,,,0.03,WUHU216DAVISVP2,2013-06-08 17:09:00,
2013-06-08 13:14:00,77.2,71.0,29.93,NE,37,0.0,0.0,81,0.00,,,0.03,WUHU216DAVISVP2,2013-06-08 17:14:00,
2013-06-08 13:19:00,77.4,71.6,29.93,NNE,23,0.0,0.0,82,0.00,,,0.03,WUHU216DAVISVP2,2013-06-08 17:19:00,
2013-06-08 13:24:00,77.4,71.6,29.93,North,0,1.0,2.0,82,0.00,,,0.03,WUHU216DAVISVP2,2013-06-08 17:24:00,
2013-06-08 13:29:00,77.6,71.4,29.93,North,0,0.0,2.0,81,0.00,,,0.03,WUHU216DAVISVP2,2013-06-08 17:29:00,
2013-06-08 13:34:00,77.9,71.7,29.93,West,263,0.0,2.0,81,0.00,,,0.03,WUHU216DAVISVP2,2013-06-08 17:34:00,
2013-06-08 13:39:00,77.7,71.1,29.93,North,6,0.0,2.0,80,0.00,,,0.03,WUHU216DAVISVP2,2013-06-08 17:39:00,
2013-06-08 13:44:00,77.6,71.0,29.93,East,99,0.0,2.0,80,0.00,,,0.03,WUHU216DAVISVP2,2013-06-08 17:44:00,
2013-06-08 13:49:00,77.6,71.0,29.93,East,97,0.0,1.0,80,0.00,,,0.03,WUHU216DAVISVP2,2013-06-08 17:49:00,
2013-06-08 13:54:00,77.6,70.9,29.93,East,97,0.0,1.0,80,0.00,,,0.03,WUHU216DAVISVP2,2013-06-08 17:54:00,
2013-06-08 13:59:00,78.1,72.2,29.92,East,97,0.0,0.0,82,0.00,,,0.03,WUHU216DAVISVP2,2013-06-08 17:59:00,
2013-06-08 14:04:00,78.3,71.7,29.92,East,97,0.0,0.0,80,0.00,,,0.03,WUHU216DAVISVP2,2013-06-08 18:04:00,
2013-06-08 14:09:00,78.5,72.2,29.92,East,97,0.0,1.0,81,0.00,,,0.03,WUHU216DAVISVP2,2013-06-08 18:09:00,
2013-06-08 14:14:00,78.5,71.6,29.92,NNW,344,0.0,4.0,79,0.00,,,0.03,WUHU216DAVISVP2,2013-06-08 18:14:00,
2013-06-08 14:19:00,78.5,71.9,29.92,NNW,346,0.0,4.0,80,0.00,,,0.03,WUHU216DAVISVP2,2013-06-08 18:19:00,
2013-06-08 14:24:00,78.3,71.2,29.92,NNW,344,0.0,2.0,79,0.00,,,0.03,WUHU216DAVISVP2,2013-06-08 18:24:00,
2013-06-08 14:29:00,78.5,71.6,29.92,NNW,344,0.0,2.0,79,0.00,,,0.03,WUHU216DAVISVP2,2013-06-08 18:29:00,
2013-06-08 14:34:00,78.6,71.7,29.92,North,4,0.0,2.0,79,0.00,,,0.03,WUHU216DAVISVP2,2013-06-08 18:34:00,
2013-06-08 14:39:00,79.4,72.1,29.92,NNW,340,0.0,2.0,78,0.00,,,0.03,WUHU216DAVISVP2,2013-06-08 18:39:00,
2013-06-08 14:44:00,79.0,71.3,29.92,East,97,0.0,2.0,77,0.00,,,0.03,WUHU216DAVISVP2,2013-06-08 18:44:00,
2013-06-08 14:49:00,79.4,72.4,29.92,NW,320,1.0,2.0,79,0.00,,,0.03,WUHU216DAVISVP2,2013-06-08 18:49:00,
2013-06-08 14:54:00,79.8,72.5,29.92,NNW,346,0.0,2.0,78,0.00,,,0.03,WUHU216DAVISVP2,2013-06-08 18:54:00,
2013-06-08 14:59:00,79.9,72.2,29.92,NNW,342,0.0,4.0,77,0.00,,,0.03,WUHU216DAVISVP2,2013-06-08 18:59:00,
2013-06-08 15:04:00,79.9,72.2,29.92,North,0,0.0,4.0,77,0.00,,,0.03,WUHU216DAVISVP2,2013-06-08 19:04:00,
2013-06-08 15:09:00,80.1,72.6,29.92,NNW,342,0.0,1.0,78,0.00,,,0.03,WUHU216DAVISVP2,2013-06-08 19:09:00,
2013-06-08 15:14:00,80.5,72.8,29.92,NNW,342,0.0,1.0,77,0.00,,,0.03,WUHU216DAVISVP2,2013-06-08 19:14:00,
2013-06-08 15:19:00,80.7,72.2,29.92,NNW,346,1.0,6.0,75,0.00,,,0.03,WUHU216DAVISVP2,2013-06-08 19:19:00,
2013-06-08 15:24:00,80.9,71.8,29.92,West,260,0.0,6.0,74,0.00,,,0.03,WUHU216DAVISVP2,2013-06-08 19:24:00,
2013-06-08 15:29:00,81.2,72.3,29.92,SSW,205,0.0,4.0,74,0.00,,,0.03,WUHU216DAVISVP2,2013-06-08 19:29:00,
2013-06-08 15:34:00,81.1,72.2,29.92,SE,130,0.0,2.0,74,0.00,,,0.03,WUHU216DAVISVP2,2013-06-08 19:34:00,
2013-06-08 15:39:00,80.9,72.4,29.92,SE,133,0.0,1.0,75,0.00,,,0.03,WUHU216DAVISVP2,2013-06-08 19:39:00,
2013-06-08 15:44:00,80.5,72.0,29.92,North,0,0.0,2.0,75,0.00,,,0.03,WUHU216DAVISVP2,2013-06-08 19:44:00,
2013-06-08 15:49:00,80.7,71.6,29.92,NNE,17,0.0,2.0,74,0.00,,,0.03,WUHU216DAVISVP2,2013-06-08 19:49:00,
2013-06-08 15:54:00,81.2,72.3,29.92,NNW,344,0.0,2.0,74,0.00,,,0.03,WUHU216DAVISVP2,2013-06-08 19:54:00,
2013-06-08 15:59:00,81.4,71.7,29.92,NE,54,0.0,2.0,72,0.00,,,0.03,WUHU216DAVISVP2,2013-06-08 19:59:00,
2013-06-08 16:04:00,81.6,72.1,29.92,NNE,18,1.0,2.0,73,0.00,,,0.03,WUHU216DAVISVP2,2013-06-08 20:04:00,
2013-06-08 16:09:00,82.0,72.5,29.92,North,359,0.0,2.0,73,0.00,,,0.03,WUHU216DAVISVP2,2013-06-08 20:09:00,
2013-06-08 16:14:00,82.2,72.3,29.93,NW,305,0.0,2.0,72,0.00,,,0.03,WUHU216DAVISVP2,2013-06-08 20:14:00,
2013-06-08 16:19:00,82.2,71.7,29.93,East,85,0.0,2.0,70,0.00,,,0.03,WUHU216DAVISVP2,2013-06-08 20:19:00,
2013-06-08 16:24:00,82.4,72.3,29.93,NNW,343,1.0,2.0,71,0.00,,,0.03,WUHU216DAVISVP2,2013-06-08 20:24:00,
2013-06-08 16:29:00,83.0,73.3,29.93,NW,323,0.0,2.0,72,0.00,,,0.03,WUHU216DAVISVP2,2013-06-08 20:29:00,
2013-06-08 16:34:00,82.4,73.1,29.93,NW,323,0.0,2.0,73,0.00,,,0.03,WUHU216DAVISVP2,2013-06-08 20:34:00,
2013-06-08 16:39:00,82.0,72.3,29.93,NW,323,0.0,0.0,72,0.00,,,0.03,WUHU216DAVISVP2,2013-06-08 20:39:00,
2013-06-08 16:45:00,81.6,72.7,29.93,NW,319,0.0,0.0,74,0.00,,,0.03,WUHU216DAVISVP2,2013-06-08 20:45:00,
2013-06-08 16:50:00,81.8,72.1,29.93,WNW,295,0.0,4.0,72,0.00,,,0.03,WUHU216DAVISVP2,2013-06-08 20:50:00,
2013-06-08 16:55:00,82.2,71.4,29.93,NNW,333,4.0,4.0,70,0.00,,,0.03,WUHU216DAVISVP2,2013-06-08 20:55:00,
2013-06-08 17:00:00,82.6,71.6,29.94,NNW,328,0.0,4.0,69,0.00,,,0.03,WUHU216DAVISVP2,2013-06-08 21:00:00,
2013-06-08 17:05:00,82.8,71.6,29.94,SE,134,0.0,2.0,69,0.00,,,0.03,WUHU216DAVISVP2,2013-06-08 21:05:00,
2013-06-08 17:10:00,82.8,70.7,29.94,SE,130,0.0,0.0,67,0.00,,,0.03,WUHU216DAVISVP2,2013-06-08 21:10:00,
2013-06-08 17:15:00,82.8,71.4,29.94,West,268,0.0,2.0,68,0.00,,,0.03,WUHU216DAVISVP2,2013-06-08 21:15:00,
2013-06-08 17:20:00,82.8,71.0,29.94,SW,227,0.0,2.0,67,0.00,,,0.03,WUHU216DAVISVP2,2013-06-08 21:20:00,
2013-06-08 17:25:00,82.8,71.4,29.94,SSE,155,0.0,1.0,68,0.00,,,0.03,WUHU216DAVISVP2,2013-06-08 21:25:00,
2013-06-08 17:30:00,83.2,72.6,29.94,SE,130,0.0,1.0,70,0.00,,,0.03,WUHU216DAVISVP2,2013-06-08 21:30:00,
2013-06-08 17:35:00,83.4,72.8,29.94,NW,326,0.0,2.0,70,0.00,,,0.03,WUHU216DAVISVP2,2013-06-08 21:35:00,
2013-06-08 17:40:00,83.8,71.5,29.94,NW,326,0.0,2.0,66,0.00,,,0.03,WUHU216DAVISVP2,2013-06-08 21:40:00,
2013-06-08 17:45:00,84.0,72.1,29.94,NW,326,0.0,0.0,67,0.00,,,0.03,WUHU216DAVISVP2,2013-06-08 21:45:00,
2013-06-08 17:50:00,84.0,72.6,29.94,NW,326,0.0,0.0,68,0.00,,,0.03,WUHU216DAVISVP2,2013-06-08 21:50:00,
2013-06-08 17:55:00,83.4,71.1,29.94,SSE,157,0.0,1.0,66,0.00,,,0.03,WUHU216DAVISVP2,2013-06-08 21:55:00,
2013-06-08 18:00:00,83.4,70.4,29.95,SSE,157,0.0,1.0,65,0.00,,,0.03,WUHU216DAVISVP2,2013-06-08 22:00:00,
2013-06-08 18:05:00,83.2,71.1,29.95,SSE,160,0.0,0.0,67,0.00,,,0.03,WUHU216DAVISVP2,2013-06-08 22:05:00,
2013-06-08 18:10:00,83.2,70.5,29.95,SSE,160,0.0,0.0,65,0.00,,,0.03,WUHU216DAVISVP2,2013-06-08 22:10:00,
2013-06-08 18:15:00,83.0,71.2,29.95,SSE,160,0.0,0.0,67,0.00,,,0.03,WUHU216DAVISVP2,2013-06-08 22:15:00,
2013-06-08 18:20:00,83.0,71.3,29.95,SSE,160,0.0,0.0,68,0.00,,,0.03,WUHU216DAVISVP2,2013-06-08 22:20:00,
2013-06-08 18:25:00,83.0,72.0,29.95,SSE,158,0.0,0.0,69,0.00,,,0.03,WUHU216DAVISVP2,2013-06-08 22:25:00,
2013-06-08 18:30:00,82.6,70.8,29.95,SE,144,0.0,0.0,67,0.00,,,0.03,WUHU216DAVISVP2,2013-06-08 22:30:00,
2013-06-08 18:35:00,82.8,71.4,29.95,SE,144,0.0,0.0,68,0.00,,,0.03,WUHU216DAVISVP2,2013-06-08 22:35:00,
2013-06-08 18:40:00,82.6,71.2,29.95,SE,144,0.0,0.0,68,0.00,,,0.03,WUHU216DAVISVP2,2013-06-08 22:40:00,
2013-06-08 18:45:00,82.2,71.3,29.95,SE,144,0.0,0.0,69,0.00,,,0.03,WUHU216DAVISVP2,2013-06-08 22:45:00,
2013-06-08 18:50:00,82.2,71.3,29.95,SE,144,0.0,0.0,69,0.00,,,0.03,WUHU216DAVISVP2,2013-06-08 22:50:00,
2013-06-08 18:55:00,81.8,70.9,29.95,SE,144,0.0,0.0,69,0.00,,,0.03,WUHU216DAVISVP2,2013-06-08 22:55:00,
2013-06-08 19:00:00,81.6,71.1,29.96,SE,144,0.0,0.0,70,0.00,,,0.03,WUHU216DAVISVP2,2013-06-08 23:00:00,
2013-06-08 19:05:00,81.2,70.5,29.96,SE,144,0.0,0.0,70,0.00,,,0.03,WUHU216DAVISVP2,2013-06-08 23:05:00,
2013-06-08 19:10:00,80.9,70.8,29.96,SE,144,0.0,0.0,71,0.00,,,0.03,WUHU216DAVISVP2,2013-06-08 23:10:00,
2013-06-08 19:15:00,80.5,70.6,29.97,SE,144,0.0,0.0,72,0.00,,,0.03,WUHU216DAVISVP2,2013-06-08 23:15:00,
2013-06-08 19:20:00,79.9,70.3,29.97,SE,144,0.0,0.0,72,0.00,,,0.03,WUHU216DAVISVP2,2013-06-08 23:20:00,
2013-06-08 19:25:00,79.4,70.2,29.97,SE,144,0.0,0.0,73,0.00,,,0.03,WUHU216DAVISVP2,2013-06-08 23:25:00,
2013-06-08 19:30:00,78.8,70.0,29.98,SE,144,0.0,0.0,74,0.00,,,0.03,WUHU216DAVISVP2,2013-06-08 23:30:00,
2013-06-08 19:35:00,78.3,69.3,29.98,SE,144,0.0,0.0,74,0.00,,,0.03,WUHU216DAVISVP2,2013-06-08 23:35:00,
2013-06-08 19:40:00,77.9,69.5,29.98,SE,144,0.0,0.0,75,0.00,,,0.03,WUHU216DAVISVP2,2013-06-08 23:40:00,
2013-06-08 19:45:00,77.6,69.2,29.97,SE,144,0.0,0.0,75,0.00,,,0.03,WUHU216DAVISVP2,2013-06-08 23:45:00,
2013-06-08 19:50:00,77.2,69.2,29.97,SE,144,0.0,0.0,76,0.00,,,0.03,WUHU216DAVISVP2,2013-06-08 23:50:00,
2013-06-08 19:55:00,77.0,69.0,29.97,SE,144,0.0,0.0,76,0.00,,,0.03,WUHU216DAVISVP2,2013-06-08 23:55:00,
2013-06-08 20:00:00,76.7,69.1,29.98,SE,144,0.0,0.0,77,0.00,,,0.03,WUHU216DAVISVP2,2013-06-09 00:00:00,
2013-06-08 20:05:00,76.5,68.9,29.98,SE,144,0.0,0.0,77,0.00,,,0.03,WUHU216DAVISVP2,2013-06-09 00:05:00,
2013-06-08 20:10:00,76.1,68.5,29.98,SE,144,0.0,0.0,77,0.00,,,0.03,WUHU216DAVISVP2,2013-06-09 00:10:00,
2013-06-08 20:15:00,76.0,68.4,29.98,SE,144,0.0,0.0,77,0.00,,,0.03,WUHU216DAVISVP2,2013-06-09 00:15:00,
2013-06-08 20:21:00,75.8,68.4,29.98,SE,144,0.0,0.0,78,0.00,,,0.03,WUHU216DAVISVP2,2013-06-09 00:21:00,
2013-06-08 20:26:00,75.8,68.6,29.98,SE,144,0.0,0.0,78,0.00,,,0.03,WUHU216DAVISVP2,2013-06-09 00:26:00,
2013-06-08 20:32:00,75.3,68.0,29.99,SE,144,0.0,0.0,78,0.00,,,0.03,WUHU216DAVISVP2,2013-06-09 00:32:00,
2013-06-08 20:37:00,74.9,67.6,29.99,SE,144,0.0,0.0,78,0.00,,,0.03,WUHU216DAVISVP2,2013-06-09 00:37:00,
2013-06-08 20:42:00,74.7,67.4,29.99,SE,144,0.0,0.0,78,0.00,,,0.03,WUHU216DAVISVP2,2013-06-09 00:42:00,
2013-06-08 20:47:00,74.7,67.4,30.00,SE,144,0.0,0.0,78,0.00,,,0.03,WUHU216DAVISVP2,2013-06-09 00:47:00,
2013-06-08 20:53:00,74.6,67.4,30.00,SE,144,0.0,0.0,78,0.00,,,0.03,WUHU216DAVISVP2,2013-06-09 00:53:00,
2013-06-08 20:58:00,74.7,68.9,30.01,SE,144,0.0,0.0,82,0.00,,,0.03,WUHU216DAVISVP2,2013-06-09 00:58:00,
2013-06-08 21:03:00,74.6,68.8,30.01,SE,144,0.0,0.0,82,0.00,,,0.03,WUHU216DAVISVP2,2013-06-09 01:03:00,
2013-06-08 21:08:00,74.4,68.5,30.01,SE,144,0.0,0.0,82,0.00,,,0.03,WUHU216DAVISVP2,2013-06-09 01:08:00,
2013-06-08 21:13:00,74.2,68.8,30.01,SE,144,0.0,0.0,83,0.00,,,0.03,WUHU216DAVISVP2,2013-06-09 01:13:00,
2013-06-08 21:18:00,74.0,68.6,30.01,SE,144,0.0,0.0,83,0.00,,,0.03,WUHU216DAVISVP2,2013-06-09 01:18:00,
2013-06-08 21:23:00,73.9,68.5,30.01,SE,144,0.0,0.0,83,0.00,,,0.03,WUHU216DAVISVP2,2013-06-09 01:23:00,
2013-06-08 21:28:00,73.7,68.2,30.01,SE,144,0.0,0.0,83,0.00,,,0.03,WUHU216DAVISVP2,2013-06-09 01:28:00,
2013-06-08 21:33:00,73.7,68.3,30.02,SE,144,0.0,0.0,83,0.00,,,0.03,WUHU216DAVISVP2,2013-06-09 01:33:00,
2013-06-08 21:38:00,73.7,68.6,30.02,SE,144,0.0,0.0,84,0.00,,,0.03,WUHU216DAVISVP2,2013-06-09 01:38:00,
2013-06-08 21:43:00,73.5,68.4,30.02,SE,144,0.0,0.0,84,0.00,,,0.03,WUHU216DAVISVP2,2013-06-09 01:43:00,
2013-06-08 21:48:00,73.3,68.2,30.03,SE,144,0.0,0.0,84,0.00,,,0.03,WUHU216DAVISVP2,2013-06-09 01:48:00,
2013-06-08 21:53:00,73.3,68.2,30.03,SE,144,0.0,0.0,84,0.00,,,0.03,WUHU216DAVISVP2,2013-06-09 01:53:00,
2013-06-08 21:58:00,73.2,68.1,30.03,SE,144,0.0,0.0,84,0.00,,,0.03,WUHU216DAVISVP2,2013-06-09 01:58:00,
2013-06-08 22:03:00,73.0,67.9,30.03,SE,144,0.0,0.0,84,0.00,,,0.03,WUHU216DAVISVP2,2013-06-09 02:03:00,
2013-06-08 22:08:00,73.2,68.1,30.03,SE,144,0.0,0.0,84,0.00,,,0.03,WUHU216DAVISVP2,2013-06-09 02:08:00,
2013-06-08 22:13:00,73.2,68.1,30.03,SE,144,0.0,0.0,84,0.00,,,0.03,WUHU216DAVISVP2,2013-06-09 02:13:00,
2013-06-08 22:18:00,72.7,67.6,30.04,SE,144,0.0,0.0,84,0.00,,,0.03,WUHU216DAVISVP2,2013-06-09 02:18:00,
2013-06-08 22:23:00,72.7,67.6,30.04,SE,144,0.0,0.0,84,0.00,,,0.03,WUHU216DAVISVP2,2013-06-09 02:23:00,
2013-06-08 22:28:00,72.5,67.8,30.04,SE,144,0.0,0.0,85,0.00,,,0.03,WUHU216DAVISVP2,2013-06-09 02:28:00,
2013-06-08 22:33:00,72.7,68.0,30.04,SE,144,0.0,0.0,85,0.00,,,0.03,WUHU216DAVISVP2,2013-06-09 02:33:00,
2013-06-08 22:38:00,72.7,68.0,30.04,SE,144,0.0,0.0,85,0.00,,,0.03,WUHU216DAVISVP2,2013-06-09 02:38:00,
2013-06-08 22:43:00,72.3,67.6,30.04,SE,144,0.0,0.0,85,0.00,,,0.03,WUHU216DAVISVP2,2013-06-09 02:43:00,
2013-06-08 22:48:00,72.3,67.6,30.05,SE,144,0.0,0.0,85,0.00,,,0.03,WUHU216DAVISVP2,2013-06-09 02:48:00,
2013-06-08 22:53:00,72.3,67.6,30.05,SE,144,0.0,0.0,85,0.00,,,0.03,WUHU216DAVISVP2,2013-06-09 02:53:00,
2013-06-08 22:58:00,72.1,67.4,30.05,SE,144,0.0,0.0,85,0.00,,,0.03,WUHU216DAVISVP2,2013-06-09 02:58:00,
2013-06-08 23:03:00,72.1,67.7,30.05,SE,144,0.0,0.0,86,0.00,,,0.03,WUHU216DAVISVP2,2013-06-09 03:03:00,
2013-06-08 23:09:00,72.1,68.0,30.05,SE,144,0.0,0.0,87,0.00,,,0.03,WUHU216DAVISVP2,2013-06-09 03:09:00,
2013-06-08 23:14:00,72.1,67.7,30.04,SE,144,0.0,0.0,86,0.00,,,0.03,WUHU216DAVISVP2,2013-06-09 03:14:00,
2013-06-08 23:19:00,72.1,68.0,30.04,SE,144,0.0,0.0,87,0.00,,,0.03,WUHU216DAVISVP2,2013-06-09 03:19:00,
2013-06-08 23:24:00,72.1,68.0,30.04,SE,144,0.0,0.0,87,0.00,,,0.03,WUHU216DAVISVP2,2013-06-09 03:24:00,
2013-06-08 23:29:00,72.1,68.0,30.05,SE,144,0.0,0.0,87,0.00,,,0.03,WUHU216DAVISVP2,2013-06-09 03:29:00,
2013-06-08 23:34:00,72.3,68.2,30.05,SE,144,0.0,0.0,87,0.00,,,0.03,WUHU216DAVISVP2,2013-06-09 03:34:00,
2013-06-08 23:39:00,72.3,68.2,30.05,SE,144,0.0,0.0,87,0.00,,,0.03,WUHU216DAVISVP2,2013-06-09 03:39:00,
2013-06-08 23:44:00,72.1,68.0,30.05,SE,144,0.0,0.0,87,0.00,,,0.03,WUHU216DAVISVP2,2013-06-09 03:44:00,
2013-06-08 23:49:00,72.1,68.0,30.05,SE,144,0.0,0.0,87,0.00,,,0.03,WUHU216DAVISVP2,2013-06-09 03:49:00,
2013-06-08 23:54:00,72.1,68.0,30.05,SE,144,0.0,0.0,87,0.00,,,0.03,WUHU216DAVISVP2,2013-06-09 03:54:00,
2013-06-08 23:59:00,72.3,68.2,30.05,SE,144,0.0,0.0,87,0.00,,,0.03,WUHU216DAVISVP2,2013-06-09 03:59:00,